Tracking 19245 objects as of 15-Aug-2018
HD Live streaming from Space Station
objects crossing your sky now

INTELSAT 3-F4

Track INTELSAT 3-F4 now!
INTELSAT 3-F4 is classified as:


NORAD ID: 3947
Int'l Code: 1969-045A
Perigee: 38,805.4 km
Apogee: 39,052.5 km
Inclination: 11.2 °
Period: 1,599.2 minutes
Semi major axis: 45299 km
RCS: 2.5125 m2 (large)
Launch date: May 22, 1969
Source: International Telecommunications Satellite Organization (ITSO)
Launch site: AIR FORCE EASTERN TEST RANGE (AFETR)
aabbcc
Your satellite tracking list
Your tracking list is empty




NASA's NSSDC Master Catalog

Two Line Element Set (TLE):
1 03947U 69045A   18226.77629950 -.00000126  00000-0  00000+0 0  9990
2 03947  11.1664 310.3328 0027273  10.5178  34.2517  0.90044283133398
Source of the keplerian elements: AFSPC